contact:dominique.lefevre@mio.osupytheas.fr, maurice.libes@osupytheas.fr, didier.mallarino@osupytheas.fr
Project:EMSO http://www.emso-fr.org/EMSO-France
Depth: 2436.0 m
Title:EMSO Ligure Ouest : Data MII capteur CSTAR
DateTime,Latitude,Longitude,Instrument_Serial,Reference_Counts,Signal_Counts,Corrected_Signal_raw_counts,Calculated_Beam_c_inverse_meters,Internal_thermistor_counts
DateTime,Latitude,Longitude,Instrument_Serial,Reference_Counts,Signal_Counts,Corrected_Signal_raw_counts,Calculated_Beam_c_inverse_meters,Internal_thermistor_counts
2017-10-05T00:01:02,42.805,6.029,CST-1368DR,11242,15403,15513,0.026,551
2017-10-05T00:04:07,42.805,6.029,CST-1368DR,11242,15404,15514,0.026,550
2017-10-05T00:07:12,42.805,6.029,CST-1368DR,11242,15405,15515,0.026,551
2017-10-05T00:10:17,42.805,6.029,CST-1368DR,11242,15400,15510,0.027,551
2017-10-05T00:13:22,42.805,6.029,CST-1368DR,11242,15400,15510,0.027,551
2017-10-05T00:16:27,42.805,6.029,CST-1368DR,11242,15402,15511,0.027,551
2017-10-05T00:19:31,42.805,6.029,CST-1368DR,11242,15387,15497,0.031,551
2017-10-05T00:22:36,42.805,6.029,CST-1368DR,11242,15385,15495,0.031,551
2017-10-05T00:25:41,42.805,6.029,CST-1368DR,11242,15397,15506,0.028,551
2017-10-05T00:28:46,42.805,6.029,CST-1368DR,11242,15386,15496,0.031,551
2017-10-05T00:31:51,42.805,6.029,CST-1368DR,11242,15397,15506,0.028,550
2017-10-05T00:34:56,42.805,6.029,CST-1368DR,11243,15396,15505,0.029,551
2017-10-05T00:38:01,42.805,6.029,CST-1368DR,11242,15401,15510,0.027,550
2017-10-05T00:41:06,42.805,6.029,CST-1368DR,11242,15403,15513,0.026,551
2017-10-05T00:44:11,42.805,6.029,CST-1368DR,11242,15404,15514,0.026,551
2017-10-05T00:47:15,42.805,6.029,CST-1368DR,11242,15403,15513,0.026,551
2017-10-05T00:50:20,42.805,6.029,CST-1368DR,11242,15402,15512,0.027,551
2017-10-05T00:53:25,42.805,6.029,CST-1368DR,11242,15405,15514,0.026,551
2017-10-05T00:56:30,42.805,6.029,CST-1368DR,11242,15402,15512,0.027,551
2017-10-05T00:59:35,42.805,6.029,CST-1368DR,11242,15405,15514,0.026,551
2017-10-05T01:02:40,42.805,6.029,CST-1368DR,11242,15403,15513,0.026,551
2017-10-05T01:05:45,42.805,6.029,CST-1368DR,11243,15405,15514,0.026,551
2017-10-05T01:08:50,42.805,6.029,CST-1368DR,11242,15408,15517,0.025,551
2017-10-05T01:11:55,42.805,6.029,CST-1368DR,11242,15406,15515,0.026,551
2017-10-05T01:14:59,42.805,6.029,CST-1368DR,11242,15405,15515,0.026,550
2017-10-05T01:18:04,42.805,6.029,CST-1368DR,11242,15406,15516,0.026,550
2017-10-05T01:21:09,42.805,6.029,CST-1368DR,11242,15406,15516,0.026,551
2017-10-05T01:24:14,42.805,6.029,CST-1368DR,11242,15407,15517,0.025,550
2017-10-05T01:27:19,42.805,6.029,CST-1368DR,11242,15406,15515,0.026,551
2017-10-05T01:30:24,42.805,6.029,CST-1368DR,11242,15404,15514,0.026,551
2017-10-05T01:33:29,42.805,6.029,CST-1368DR,11242,15400,15510,0.027,551
2017-10-05T01:36:34,42.805,6.029,CST-1368DR,11242,15406,15515,0.026,550
2017-10-05T01:39:39,42.805,6.029,CST-1368DR,11242,15404,15514,0.026,551
2017-10-05T01:42:43,42.805,6.029,CST-1368DR,11242,15406,15516,0.026,551
2017-10-05T01:45:48,42.805,6.029,CST-1368DR,11242,15404,15514,0.026,550
2017-10-05T01:48:53,42.805,6.029,CST-1368DR,11242,15404,15514,0.026,551
2017-10-05T01:51:58,42.805,6.029,CST-1368DR,11242,15400,15510,0.027,551
2017-10-05T01:55:03,42.805,6.029,CST-1368DR,11242,15402,15512,0.027,551
2017-10-05T01:58:08,42.805,6.029,CST-1368DR,11242,15403,15512,0.027,551
2017-10-05T02:01:13,42.805,6.029,CST-1368DR,11242,15406,15515,0.026,551
2017-10-05T02:04:18,42.805,6.029,CST-1368DR,11242,15403,15513,0.026,551
2017-10-05T02:07:23,42.805,6.029,CST-1368DR,11242,15404,15514,0.026,551
2017-10-05T02:10:28,42.805,6.029,CST-1368DR,11242,15404,15514,0.026,551
2017-10-05T02:13:32,42.805,6.029,CST-1368DR,11242,15406,15515,0.026,551
2017-10-05T02:16:37,42.805,6.029,CST-1368DR,11242,15405,15515,0.026,551
2017-10-05T02:19:42,42.805,6.029,CST-1368DR,11242,15405,15514,0.026,551
2017-10-05T02:22:47,42.805,6.029,CST-1368DR,11242,15406,15516,0.026,551
2017-10-05T02:25:52,42.805,6.029,CST-1368DR,11242,15404,15514,0.026,550
2017-10-05T02:28:57,42.805,6.029,CST-1368DR,11242,15401,15510,0.027,551
2017-10-05T02:32:02,42.805,6.029,CST-1368DR,11242,15405,15514,0.026,551
2017-10-05T02:35:07,42.805,6.029,CST-1368DR,11242,15406,15516,0.026,550
2017-10-05T02:38:12,42.805,6.029,CST-1368DR,11242,15404,15514,0.026,551
2017-10-05T02:41:16,42.805,6.029,CST-1368DR,11242,15404,15514,0.026,551
2017-10-05T02:44:21,42.805,6.029,CST-1368DR,11242,15401,15510,0.027,551
2017-10-05T02:47:26,42.805,6.029,CST-1368DR,11242,15404,15513,0.026,551
2017-10-05T02:50:31,42.805,6.029,CST-1368DR,11242,15406,15516,0.026,551
2017-10-05T02:53:36,42.805,6.029,CST-1368DR,11242,15405,15515,0.026,551
2017-10-05T02:56:41,42.805,6.029,CST-1368DR,11242,15402,15512,0.027,551
2017-10-05T02:59:46,42.805,6.029,CST-1368DR,11242,15404,15514,0.026,551
2017-10-05T03:02:51,42.805,6.029,CST-1368DR,11242,15403,15512,0.027,551
2017-10-05T03:05:56,42.805,6.029,CST-1368DR,11242,15399,15509,0.028,551
2017-10-05T03:09:00,42.805,6.029,CST-1368DR,11242,15404,15513,0.026,551
2017-10-05T03:12:05,42.805,6.029,CST-1368DR,11242,15400,15510,0.027,551
2017-10-05T03:15:10,42.805,6.029,CST-1368DR,11242,15403,15513,0.026,550
2017-10-05T03:18:15,42.805,6.029,CST-1368DR,11242,15405,15515,0.026,550
2017-10-05T03:21:20,42.805,6.029,CST-1368DR,11242,15404,15514,0.026,551
2017-10-05T03:24:25,42.805,6.029,CST-1368DR,11242,15399,15508,0.028,551
2017-10-05T03:27:30,42.805,6.029,CST-1368DR,11242,15404,15514,0.026,551
2017-10-05T03:30:35,42.805,6.029,CST-1368DR,11242,15396,15505,0.029,551
2017-10-05T03:33:40,42.805,6.029,CST-1368DR,11242,15402,15511,0.027,550
2017-10-05T03:36:45,42.805,6.029,CST-1368DR,11242,15403,15513,0.026,550
2017-10-05T03:39:49,42.805,6.029,CST-1368DR,11242,15404,15514,0.026,550
2017-10-05T03:42:54,42.805,6.029,CST-1368DR,11242,15405,15515,0.026,551
2017-10-05T03:45:59,42.805,6.029,CST-1368DR,11242,15403,15513,0.026,550
2017-10-05T03:49:04,42.805,6.029,CST-1368DR,11242,15404,15513,0.026,550
2017-10-05T03:52:09,42.805,6.029,CST-1368DR,11242,15404,15514,0.026,551
2017-10-05T03:55:14,42.805,6.029,CST-1368DR,11242,15399,15509,0.028,551
2017-10-05T03:58:19,42.805,6.029,CST-1368DR,11242,15402,15512,0.027,551
2017-10-05T04:01:24,42.805,6.029,CST-1368DR,11242,15403,15512,0.027,551
2017-10-05T04:04:29,42.805,6.029,CST-1368DR,11242,15381,15491,0.032,551
2017-10-05T04:07:33,42.805,6.029,CST-1368DR,11242,15399,15509,0.028,551
2017-10-05T04:10:38,42.805,6.029,CST-1368DR,11242,15404,15514,0.026,551
2017-10-05T04:13:43,42.805,6.029,CST-1368DR,11242,15401,15511,0.027,551
2017-10-05T04:16:48,42.805,6.029,CST-1368DR,11242,15403,15512,0.027,551
2017-10-05T04:19:53,42.805,6.029,CST-1368DR,11242,15404,15514,0.026,550
2017-10-05T04:22:58,42.805,6.029,CST-1368DR,11242,15405,15514,0.026,550
2017-10-05T04:26:03,42.805,6.029,CST-1368DR,11242,15399,15509,0.028,550
2017-10-05T04:29:08,42.805,6.029,CST-1368DR,11242,15405,15515,0.026,551
2017-10-05T04:32:13,42.805,6.029,CST-1368DR,11242,15404,15513,0.026,550
2017-10-05T04:35:17,42.805,6.029,CST-1368DR,11242,15399,15509,0.028,551
2017-10-05T04:38:22,42.805,6.029,CST-1368DR,11242,15404,15513,0.026,550
2017-10-05T04:41:27,42.805,6.029,CST-1368DR,11242,15401,15510,0.027,550
2017-10-05T04:44:32,42.805,6.029,CST-1368DR,11242,15403,15513,0.026,551
2017-10-05T04:47:37,42.805,6.029,CST-1368DR,11242,15398,15508,0.028,551
2017-10-05T04:50:42,42.805,6.029,CST-1368DR,11242,15403,15512,0.027,551
2017-10-05T04:53:47,42.805,6.029,CST-1368DR,11242,15399,15509,0.028,551
2017-10-05T04:56:52,42.805,6.029,CST-1368DR,11242,15402,15511,0.027,551
2017-10-05T04:59:57,42.805,6.029,CST-1368DR,11242,15399,15508,0.028,551
2017-10-05T05:03:01,42.805,6.029,CST-1368DR,11242,15402,15512,0.027,551
2017-10-05T05:06:06,42.805,6.029,CST-1368DR,11242,15389,15498,0.030,550
2017-10-05T05:09:11,42.805,6.029,CST-1368DR,11242,15401,15511,0.027,551
2017-10-05T05:12:16,42.805,6.029,CST-1368DR,11242,15404,15514,0.026,551
2017-10-05T05:15:21,42.805,6.029,CST-1368DR,11242,15404,15514,0.026,551
2017-10-05T05:18:26,42.805,6.029,CST-1368DR,11242,15397,15507,0.028,551
2017-10-05T05:21:31,42.805,6.029,CST-1368DR,11242,15403,15513,0.026,551
2017-10-05T05:24:36,42.805,6.029,CST-1368DR,11242,15403,15513,0.026,550
2017-10-05T05:27:41,42.805,6.029,CST-1368DR,11242,15398,15507,0.028,551
2017-10-05T05:30:45,42.805,6.029,CST-1368DR,11242,15404,15513,0.026,551
2017-10-05T05:33:50,42.805,6.029,CST-1368DR,11242,15400,15510,0.027,550
2017-10-05T05:36:55,42.805,6.029,CST-1368DR,11242,15398,15507,0.028,551
2017-10-05T05:40:00,42.805,6.029,CST-1368DR,11242,15398,15508,0.028,551
2017-10-05T05:43:05,42.805,6.029,CST-1368DR,11242,15404,15513,0.026,551
2017-10-05T05:46:10,42.805,6.029,CST-1368DR,11242,15404,15514,0.026,551
2017-10-05T05:49:15,42.805,6.029,CST-1368DR,11242,15403,15513,0.026,551
2017-10-05T05:52:20,42.805,6.029,CST-1368DR,11242,15405,15515,0.026,551
2017-10-05T05:55:25,42.805,6.029,CST-1368DR,11242,15405,15515,0.026,551
2017-10-05T05:58:30,42.805,6.029,CST-1368DR,11242,15405,15515,0.026,551
2017-10-05T06:01:34,42.805,6.029,CST-1368DR,11242,15405,15514,0.026,551
2017-10-05T06:04:39,42.805,6.029,CST-1368DR,11242,15405,15514,0.026,551
2017-10-05T06:07:44,42.805,6.029,CST-1368DR,11242,15401,15510,0.027,550
2017-10-05T06:10:49,42.805,6.029,CST-1368DR,11242,15403,15512,0.027,550
2017-10-05T06:13:54,42.805,6.029,CST-1368DR,11242,15401,15511,0.027,551
2017-10-05T06:16:59,42.805,6.029,CST-1368DR,11242,15405,15514,0.026,551
2017-10-05T06:20:04,42.805,6.029,CST-1368DR,11242,15404,15514,0.026,551
2017-10-05T06:23:09,42.805,6.029,CST-1368DR,11242,15401,15511,0.027,551
2017-10-05T06:26:14,42.805,6.029,CST-1368DR,11242,15404,15514,0.026,551
2017-10-05T06:29:18,42.805,6.029,CST-1368DR,11242,15403,15513,0.026,551
2017-10-05T06:32:23,42.805,6.029,CST-1368DR,11242,15402,15512,0.027,551
2017-10-05T06:35:28,42.805,6.029,CST-1368DR,11242,15401,15511,0.027,551
2017-10-05T06:38:33,42.805,6.029,CST-1368DR,11242,15404,15514,0.026,551
2017-10-05T06:41:38,42.805,6.029,CST-1368DR,11242,15402,15511,0.027,551
2017-10-05T06:44:43,42.805,6.029,CST-1368DR,11241,15386,15497,0.031,551
2017-10-05T06:47:48,42.805,6.029,CST-1368DR,11242,15402,15511,0.027,550
2017-10-05T06:50:53,42.805,6.029,CST-1368DR,11241,15388,15499,0.030,551
2017-10-05T06:53:58,42.805,6.029,CST-1368DR,11242,15401,15510,0.027,551
2017-10-05T06:57:02,42.805,6.029,CST-1368DR,11242,15403,15512,0.027,551
2017-10-05T07:00:07,42.805,6.029,CST-1368DR,11242,15399,15509,0.028,550
2017-10-05T07:03:12,42.805,6.029,CST-1368DR,11242,15404,15513,0.026,551
2017-10-05T07:06:17,42.805,6.029,CST-1368DR,11242,15401,15510,0.027,551
2017-10-05T07:09:22,42.805,6.029,CST-1368DR,11242,15403,15513,0.026,551
2017-10-05T07:12:27,42.805,6.029,CST-1368DR,11242,15401,15510,0.027,551
2017-10-05T07:15:32,42.805,6.029,CST-1368DR,11242,15402,15512,0.027,551
2017-10-05T07:18:37,42.805,6.029,CST-1368DR,11241,15400,15511,0.027,551
2017-10-05T07:21:42,42.805,6.029,CST-1368DR,11242,15400,15509,0.028,551
2017-10-05T07:24:46,42.805,6.029,CST-1368DR,11242,15397,15507,0.028,551
2017-10-05T07:27:51,42.805,6.029,CST-1368DR,11241,15401,15512,0.027,551
2017-10-05T07:30:56,42.805,6.029,CST-1368DR,11242,15403,15513,0.026,551
2017-10-05T07:34:01,42.805,6.029,CST-1368DR,11242,15403,15512,0.027,551
2017-10-05T07:37:06,42.805,6.029,CST-1368DR,11242,15403,15512,0.027,551
2017-10-05T07:40:11,42.805,6.029,CST-1368DR,11241,15403,15514,0.026,550
2017-10-05T07:43:16,42.805,6.029,CST-1368DR,11241,15404,15515,0.026,551
2017-10-05T07:46:21,42.805,6.029,CST-1368DR,11241,15402,15513,0.026,550
2017-10-05T07:49:26,42.805,6.029,CST-1368DR,11241,15402,15512,0.027,551
2017-10-05T07:52:31,42.805,6.029,CST-1368DR,11241,15403,15513,0.026,551
2017-10-05T07:55:35,42.805,6.029,CST-1368DR,11241,15394,15505,0.029,551
2017-10-05T07:58:40,42.805,6.029,CST-1368DR,11241,15380,15491,0.032,551
2017-10-05T08:01:45,42.805,6.029,CST-1368DR,11241,15389,15500,0.030,551
2017-10-05T08:04:50,42.805,6.029,CST-1368DR,11241,15399,15510,0.027,551
2017-10-05T08:07:55,42.805,6.029,CST-1368DR,11241,15379,15490,0.032,551
2017-10-05T08:11:00,42.805,6.029,CST-1368DR,11241,15383,15494,0.031,550
2017-10-05T08:14:05,42.805,6.029,CST-1368DR,11241,15358,15469,0.038,551
2017-10-05T08:17:10,42.805,6.029,CST-1368DR,11241,15351,15461,0.040,551
2017-10-05T08:20:15,42.805,6.029,CST-1368DR,11241,15362,15473,0.037,551
2017-10-05T08:23:19,42.805,6.029,CST-1368DR,11240,15322,15434,0.047,551
2017-10-05T08:26:24,42.805,6.029,CST-1368DR,11240,15367,15479,0.035,550
2017-10-05T08:29:29,42.805,6.029,CST-1368DR,11240,15347,15459,0.040,551
2017-10-05T08:32:34,42.805,6.029,CST-1368DR,11240,15350,15462,0.040,551
2017-10-05T08:35:39,42.805,6.029,CST-1368DR,11240,15318,15430,0.048,551
2017-10-05T08:38:44,42.805,6.029,CST-1368DR,11240,15339,15451,0.042,550
2017-10-05T08:41:49,42.805,6.029,CST-1368DR,11240,15362,15473,0.037,551
2017-10-05T08:44:54,42.805,6.029,CST-1368DR,11240,15369,15480,0.035,550
2017-10-05T08:47:59,42.805,6.029,CST-1368DR,11240,15384,15496,0.031,551
2017-10-05T08:51:03,42.805,6.029,CST-1368DR,11239,15360,15473,0.037,551
2017-10-05T08:54:08,42.805,6.029,CST-1368DR,11239,15355,15468,0.038,550
2017-10-05T08:57:13,42.805,6.029,CST-1368DR,11239,15367,15480,0.035,550
2017-10-05T09:00:18,42.805,6.029,CST-1368DR,11239,15384,15497,0.031,550
2017-10-05T09:03:23,42.805,6.029,CST-1368DR,11239,15383,15496,0.031,551
2017-10-05T09:06:28,42.805,6.029,CST-1368DR,11239,15385,15499,0.030,551
2017-10-05T09:09:33,42.805,6.029,CST-1368DR,11239,15376,15490,0.032,551
2017-10-05T09:12:38,42.805,6.029,CST-1368DR,11240,15380,15492,0.032,550
2017-10-05T09:15:43,42.805,6.029,CST-1368DR,11240,15377,15489,0.033,550
2017-10-05T09:18:47,42.805,6.029,CST-1368DR,11240,15392,15504,0.029,550
2017-10-05T09:21:52,42.805,6.029,CST-1368DR,11240,15398,15510,0.027,551
2017-10-05T09:24:57,42.805,6.029,CST-1368DR,11240,15363,15475,0.036,551
2017-10-05T09:28:02,42.805,6.029,CST-1368DR,11240,15395,15507,0.028,551
2017-10-05T09:31:07,42.805,6.029,CST-1368DR,11240,15374,15486,0.033,550
2017-10-05T09:34:12,42.805,6.029,CST-1368DR,11240,15386,15498,0.030,550
2017-10-05T09:37:17,42.805,6.029,CST-1368DR,11240,15365,15476,0.036,551
2017-10-05T09:40:22,42.805,6.029,CST-1368DR,11240,15384,15496,0.031,551
2017-10-05T09:43:27,42.805,6.029,CST-1368DR,11241,15394,15504,0.029,551
2017-10-05T09:46:32,42.805,6.029,CST-1368DR,11240,15358,15470,0.038,551
2017-10-05T09:49:36,42.805,6.029,CST-1368DR,11240,15383,15495,0.031,551
2017-10-05T09:52:41,42.805,6.029,CST-1368DR,11240,15399,15511,0.027,551
2017-10-05T09:55:46,42.805,6.029,CST-1368DR,11241,15392,15503,0.029,551
2017-10-05T09:58:51,42.805,6.029,CST-1368DR,11240,15368,15479,0.035,551
2017-10-05T10:01:56,42.805,6.029,CST-1368DR,11240,15381,15493,0.032,551
2017-10-05T10:05:01,42.805,6.029,CST-1368DR,11241,15383,15494,0.031,551
2017-10-05T10:08:06,42.805,6.029,CST-1368DR,11240,15387,15499,0.030,551
2017-10-05T10:11:11,42.805,6.029,CST-1368DR,11241,15392,15503,0.029,551
2017-10-05T10:14:16,42.805,6.029,CST-1368DR,11240,15398,15510,0.027,551
2017-10-05T10:17:20,42.805,6.029,CST-1368DR,11241,15386,15497,0.031,551
2017-10-05T10:20:25,42.805,6.029,CST-1368DR,11241,15399,15510,0.027,551
2017-10-05T10:23:30,42.805,6.029,CST-1368DR,11241,15392,15503,0.029,551
2017-10-05T10:26:35,42.805,6.029,CST-1368DR,11240,15393,15505,0.029,551
2017-10-05T10:29:40,42.805,6.029,CST-1368DR,11241,15392,15502,0.029,550
2017-10-05T10:32:45,42.805,6.029,CST-1368DR,11240,15384,15496,0.031,551
2017-10-05T10:35:50,42.805,6.029,CST-1368DR,11240,15378,15490,0.032,551
2017-10-05T10:38:55,42.805,6.029,CST-1368DR,11241,15389,15500,0.030,551
2017-10-05T10:42:00,42.805,6.029,CST-1368DR,11240,15390,15502,0.029,551
2017-10-05T10:45:04,42.805,6.029,CST-1368DR,11241,15394,15505,0.029,550
2017-10-05T10:48:09,42.805,6.029,CST-1368DR,11240,15382,15494,0.031,551
2017-10-05T10:51:14,42.805,6.029,CST-1368DR,11241,15388,15499,0.030,550
2017-10-05T10:54:19,42.805,6.029,CST-1368DR,11241,15400,15511,0.027,551
2017-10-05T10:57:24,42.805,6.029,CST-1368DR,11241,15397,15507,0.028,551
2017-10-05T11:00:29,42.805,6.029,CST-1368DR,11240,15370,15482,0.034,551
2017-10-05T11:03:34,42.805,6.029,CST-1368DR,11240,15381,15493,0.032,551
2017-10-05T11:06:39,42.805,6.029,CST-1368DR,11240,15387,15499,0.030,550
2017-10-05T11:09:44,42.805,6.029,CST-1368DR,11241,15386,15497,0.031,551
2017-10-05T11:12:48,42.805,6.029,CST-1368DR,11241,15395,15506,0.028,551
2017-10-05T11:15:53,42.805,6.029,CST-1368DR,11241,15390,15501,0.030,551
2017-10-05T11:18:58,42.805,6.029,CST-1368DR,11240,15375,15487,0.033,551
2017-10-05T11:22:03,42.805,6.029,CST-1368DR,11241,15392,15503,0.029,551
2017-10-05T11:25:08,42.805,6.029,CST-1368DR,11240,15393,15505,0.029,550
2017-10-05T11:28:13,42.805,6.029,CST-1368DR,11241,15394,15505,0.029,550
2017-10-05T11:31:18,42.805,6.029,CST-1368DR,11241,15394,15505,0.029,550
2017-10-05T11:34:23,42.805,6.029,CST-1368DR,11241,15396,15506,0.028,551
2017-10-05T11:37:28,42.805,6.029,CST-1368DR,11241,15395,15506,0.028,551
2017-10-05T11:40:33,42.805,6.029,CST-1368DR,11241,15396,15507,0.028,551
2017-10-05T11:43:37,42.805,6.029,CST-1368DR,11241,15395,15505,0.029,551
2017-10-05T11:46:42,42.805,6.029,CST-1368DR,11241,15398,15509,0.028,551
2017-10-05T11:49:47,42.805,6.029,CST-1368DR,11241,15386,15497,0.031,551
2017-10-05T11:52:52,42.805,6.029,CST-1368DR,11241,15398,15509,0.028,550
2017-10-05T11:55:57,42.805,6.029,CST-1368DR,11240,15391,15503,0.029,551
2017-10-05T11:59:02,42.805,6.029,CST-1368DR,11241,15398,15509,0.028,551
2017-10-05T12:02:07,42.805,6.029,CST-1368DR,11241,15396,15507,0.028,550
2017-10-05T12:05:12,42.805,6.029,CST-1368DR,11241,15384,15495,0.031,551
2017-10-05T12:08:17,42.805,6.029,CST-1368DR,11241,15400,15511,0.027,551
2017-10-05T12:11:21,42.805,6.029,CST-1368DR,11241,15377,15488,0.033,550
2017-10-05T12:14:26,42.805,6.029,CST-1368DR,11241,15390,15500,0.030,551
2017-10-05T12:17:31,42.805,6.029,CST-1368DR,11241,15392,15503,0.029,550
2017-10-05T12:20:36,42.805,6.029,CST-1368DR,11241,15392,15503,0.029,551
2017-10-05T12:23:41,42.805,6.029,CST-1368DR,11241,15381,15491,0.032,551
2017-10-05T12:26:46,42.805,6.029,CST-1368DR,11241,15394,15504,0.029,550
2017-10-05T12:29:51,42.805,6.029,CST-1368DR,11241,15392,15503,0.029,551
2017-10-05T12:32:56,42.805,6.029,CST-1368DR,11241,15396,15506,0.028,551
2017-10-05T12:36:01,42.805,6.029,CST-1368DR,11241,15388,15499,0.030,551
2017-10-05T12:39:05,42.805,6.029,CST-1368DR,11241,15395,15505,0.029,551
2017-10-05T12:42:10,42.805,6.029,CST-1368DR,11241,15384,15495,0.031,551
2017-10-05T12:45:15,42.805,6.029,CST-1368DR,11241,15394,15504,0.029,551
2017-10-05T12:48:20,42.805,6.029,CST-1368DR,11241,15395,15506,0.028,551
2017-10-05T12:51:25,42.805,6.029,CST-1368DR,11241,15395,15505,0.029,551
2017-10-05T12:54:30,42.805,6.029,CST-1368DR,11241,15389,15500,0.030,551
2017-10-05T12:57:35,42.805,6.029,CST-1368DR,11241,15395,15506,0.028,551
2017-10-05T13:00:40,42.805,6.029,CST-1368DR,11241,15396,15507,0.028,550
2017-10-05T13:03:45,42.805,6.029,CST-1368DR,11241,15391,15502,0.029,551
2017-10-05T13:06:49,42.805,6.029,CST-1368DR,11241,15393,15504,0.029,551
2017-10-05T13:09:54,42.805,6.029,CST-1368DR,11241,15395,15506,0.028,551
2017-10-05T13:12:59,42.805,6.029,CST-1368DR,11241,15394,15505,0.029,551
2017-10-05T13:16:04,42.805,6.029,CST-1368DR,11241,15399,15509,0.028,551
2017-10-05T13:19:09,42.805,6.029,CST-1368DR,11241,15395,15506,0.028,551
2017-10-05T13:22:14,42.805,6.029,CST-1368DR,11241,15397,15508,0.028,551
2017-10-05T13:25:19,42.805,6.029,CST-1368DR,11241,15392,15502,0.029,550
2017-10-05T13:28:24,42.805,6.029,CST-1368DR,11241,15397,15508,0.028,551
2017-10-05T13:31:29,42.805,6.029,CST-1368DR,11241,15399,15509,0.028,551
2017-10-05T13:34:33,42.805,6.029,CST-1368DR,11241,15397,15508,0.028,551
2017-10-05T13:37:38,42.805,6.029,CST-1368DR,11241,15397,15508,0.028,551
2017-10-05T13:40:43,42.805,6.029,CST-1368DR,11241,15398,15509,0.028,551
2017-10-05T13:43:48,42.805,6.029,CST-1368DR,11241,15400,15511,0.027,551
2017-10-05T13:46:53,42.805,6.029,CST-1368DR,11241,15398,15509,0.028,551
2017-10-05T13:49:58,42.805,6.029,CST-1368DR,11241,15398,15508,0.028,551
2017-10-05T13:53:03,42.805,6.029,CST-1368DR,11241,15401,15511,0.027,551
2017-10-05T13:56:08,42.805,6.029,CST-1368DR,11241,15401,15511,0.027,551
2017-10-05T13:59:13,42.805,6.029,CST-1368DR,11241,15399,15510,0.027,551
2017-10-05T14:02:18,42.805,6.029,CST-1368DR,11241,15400,15511,0.027,551
2017-10-05T14:05:22,42.805,6.029,CST-1368DR,11241,15398,15508,0.028,551
2017-10-05T14:08:27,42.805,6.029,CST-1368DR,11241,15400,15511,0.027,551
2017-10-05T14:11:32,42.805,6.029,CST-1368DR,11241,15402,15512,0.027,551
2017-10-05T14:14:37,42.805,6.029,CST-1368DR,11241,15401,15512,0.027,551
2017-10-05T14:17:42,42.805,6.029,CST-1368DR,11241,15397,15508,0.028,551
2017-10-05T14:20:47,42.805,6.029,CST-1368DR,11241,15398,15509,0.028,551
2017-10-05T14:23:52,42.805,6.029,CST-1368DR,11241,15398,15509,0.028,551
2017-10-05T14:26:57,42.805,6.029,CST-1368DR,11241,15398,15508,0.028,551
2017-10-05T14:30:02,42.805,6.029,CST-1368DR,11241,15399,15510,0.027,551
2017-10-05T14:33:06,42.805,6.029,CST-1368DR,11241,15398,15509,0.028,550
2017-10-05T14:36:11,42.805,6.029,CST-1368DR,11241,15398,15508,0.028,551
2017-10-05T14:39:16,42.805,6.029,CST-1368DR,11241,15397,15507,0.028,550
2017-10-05T14:42:21,42.805,6.029,CST-1368DR,11241,15396,15507,0.028,550
2017-10-05T14:45:26,42.805,6.029,CST-1368DR,11241,15398,15509,0.028,551
2017-10-05T14:48:31,42.805,6.029,CST-1368DR,11241,15399,15510,0.027,551
2017-10-05T14:51:36,42.805,6.029,CST-1368DR,11241,15402,15513,0.026,551
2017-10-05T14:54:41,42.805,6.029,CST-1368DR,11241,15400,15511,0.027,551
2017-10-05T14:57:46,42.805,6.029,CST-1368DR,11241,15400,15511,0.027,551
2017-10-05T15:00:50,42.805,6.029,CST-1368DR,11241,15401,15511,0.027,551
2017-10-05T15:03:55,42.805,6.029,CST-1368DR,11241,15402,15512,0.027,550
2017-10-05T15:07:00,42.805,6.029,CST-1368DR,11241,15392,15503,0.029,551
2017-10-05T15:10:05,42.805,6.029,CST-1368DR,11241,15401,15512,0.027,551
2017-10-05T15:13:10,42.805,6.029,CST-1368DR,11241,15402,15513,0.026,551
2017-10-05T15:16:15,42.805,6.029,CST-1368DR,11241,15398,15508,0.028,551
2017-10-05T15:19:20,42.805,6.029,CST-1368DR,11241,15398,15509,0.028,551
2017-10-05T15:22:25,42.805,6.029,CST-1368DR,11241,15399,15510,0.027,551
2017-10-05T15:25:30,42.805,6.029,CST-1368DR,11241,15400,15511,0.027,551
2017-10-05T15:28:35,42.805,6.029,CST-1368DR,11241,15400,15511,0.027,551
2017-10-05T15:31:39,42.805,6.029,CST-1368DR,11241,15400,15511,0.027,551
2017-10-05T15:34:44,42.805,6.029,CST-1368DR,11241,15398,15509,0.028,551
2017-10-05T15:37:49,42.805,6.029,CST-1368DR,11241,15396,15507,0.028,550
2017-10-05T15:40:54,42.805,6.029,CST-1368DR,11241,15401,15511,0.027,551
2017-10-05T15:43:59,42.805,6.029,CST-1368DR,11241,15398,15508,0.028,551
2017-10-05T15:47:04,42.805,6.029,CST-1368DR,11241,15399,15510,0.027,551
2017-10-05T15:50:09,42.805,6.029,CST-1368DR,11241,15397,15508,0.028,551
2017-10-05T15:53:14,42.805,6.029,CST-1368DR,11241,15398,15508,0.028,551
2017-10-05T15:56:19,42.805,6.029,CST-1368DR,11241,15400,15511,0.027,550
2017-10-05T15:59:23,42.805,6.029,CST-1368DR,11241,15401,15512,0.027,551
2017-10-05T16:02:28,42.805,6.029,CST-1368DR,11241,15401,15512,0.027,551
2017-10-05T16:05:33,42.805,6.029,CST-1368DR,11241,15399,15509,0.028,550
2017-10-05T16:08:38,42.805,6.029,CST-1368DR,11241,15398,15509,0.028,551
2017-10-05T16:11:43,42.805,6.029,CST-1368DR,11241,15399,15510,0.027,551
2017-10-05T16:14:48,42.805,6.029,CST-1368DR,11241,15402,15512,0.027,551
2017-10-05T16:17:53,42.805,6.029,CST-1368DR,11241,15399,15510,0.027,550
2017-10-05T16:20:58,42.805,6.029,CST-1368DR,11241,15398,15509,0.028,551
2017-10-05T16:24:03,42.805,6.029,CST-1368DR,11241,15395,15506,0.028,551
2017-10-05T16:27:07,42.805,6.029,CST-1368DR,11241,15399,15510,0.027,551
2017-10-05T16:30:12,42.805,6.029,CST-1368DR,11241,15401,15512,0.027,551
2017-10-05T16:33:17,42.805,6.029,CST-1368DR,11241,15396,15507,0.028,550
2017-10-05T16:36:22,42.805,6.029,CST-1368DR,11241,15397,15508,0.028,551
2017-10-05T16:39:27,42.805,6.029,CST-1368DR,11241,15399,15509,0.028,550